OBJECT B, 59774

Orbit data source: Space-Track

You're viewing an Uncataloged Satellite

Recently launched and/or uncataloged satellites may have evolving metadata. Metadata may include but not limited to: Owner, Maufacturer, Bus, Motor, and Mission.

OBJECT B, 59774 is a satellite owned by Sputniks (CIS) in SSO that was launched on Thu, 16 May 2024 UTC via a SOYUZ-2-1B launch vehicle from the Plesetsk Missile And Space Complex (PKMTR). Unknown objects in Earth's orbit typically refer to objects detected orbiting the Earth but have not yet been identified or cataloged. These objects could be anything from previously untracked satellites, spent rocket stages, debris from satellite collisions, or even natural meteoroids temporarily captured by Earth's gravity.

Loading next visibility...
Identifier
59774, 2024-092B
Orbit
SSO
Last TLE update
9 hours ago
Origin
Manufacturer
Sputniks
Mission
Operational spacecraft
Bus & Motor
CUBESAT 12U, Unknown motor
Mass
20 kg wet, 20 kg dry
Launch date (UTC)
2024-05-16 (1 year ago)
Launch vehicle
SOYUZ-2-1B
Launch site
Plesetsk Missile And Space Complex (PKMTR)
Object type
Unknown
Shape & HBR
Unknown
Radar Cross Section
Medium (>0.1 m² and <1 m²)

Expand to show TLE details & history

TLE from 9 hours ago
0 OBJECT B
1 59774U 24092B   25128.92910348  .00010777  00000-0  51109-3 0  9994
2 59774  97.6097 246.1861 0011824 150.0004 210.1910 15.19406291 53972
Epoch: 2025-05-08T22:17Z
Definitive object data (Epoch: 2025-05-08T22:17:54.54Z)
Latitude
-0.00004°
Longitude
44.7163°
Altitude
517.759 km
Speed
7.601 km/s
True Right ascension
16h 24m 44s
True Declination
0° 00' 00"
Sunlit
Object was in full shadow at TLE epoch
Visualization TLE readout
Latitude
38.04182°
Longitude
-128.95853°
Altitude
504.899 km
Speed
7.62 km/s
Apparent Right ascension
03h 57m 03s
Apparent Declination
0° 51' 15"
Sunlit
Object is in daylight
Visualization observer readout
Local Sidereal Time
14:58:14
Azimuth
338.12° N
Elevation
-47.072°
Doppler factor
1
Orbital elements
Apogee altitude
512.747 km
Perigee altitude
496.471 km
Semi-major axis
6,882.746 km
Eccentricity
0.0011824
Inclination
97.6097°
RAAN
246.1861°
Arg. of periapsis
150.0004°
True anomaly
210.12295°
Mean anomaly
210.191°
Eccentric anomaly
210.15697°
Mean motion
3.80102 °/min
BSTAR
0.00051109
Orbital period
94.71 mins
Loading maneuver chart data...
Loading SW <> Apogee altitude chart data...
Loading historical data...
Loading historical data...
Loading historical data...
Loading historical data...
Loading historical data...
Loading historical data...
Loading historical data...

OBJECT B Visibility forecast

Observer location: undefined°, undefined°

Span
Click to sort rows by Start time (UTC) header in descending order
Start Az.
Max El. time (UTC)
Max El. Az.
Max El.
End time (UTC)
End Az.
6 mins2025-05-09 07:54:20.704Z172.87° S2025-05-09 07:57:20.704Z236.169° WSW43.929°2025-05-09 08:00:20.704Z343.053° N
5 mins2025-05-09 21:00:20.704Z347.374° N2025-05-09 21:02:20.704Z270.186° WNW36.303°2025-05-09 21:05:20.704Z212.036° SW
|